Year,Month,Day,Hour,Minute,Value (Times are PST for windspeed in km/hr)
2022,04,07,00,00,2.80
2022,04,07,00,01,2.50
2022,04,07,00,02,3.30
2022,04,07,00,03,2.20
2022,04,07,00,04,2.20
2022,04,07,00,05,2.50
2022,04,07,00,06,2.00
2022,04,07,00,07,1.50
2022,04,07,00,08,2.20
2022,04,07,00,09,2.30
2022,04,07,00,10,2.10
2022,04,07,00,11,2.10
2022,04,07,00,12,2.10
2022,04,07,00,13,2.30
2022,04,07,00,14,3.00
2022,04,07,00,15,2.90
2022,04,07,00,16,2.70
2022,04,07,00,17,3.20
2022,04,07,00,18,3.60
2022,04,07,00,19,3.50
2022,04,07,00,20,2.60
2022,04,07,00,21,1.90
2022,04,07,00,22,2.50
2022,04,07,00,23,2.30
2022,04,07,00,24,1.90
2022,04,07,00,25,2.30
2022,04,07,00,26,1.90
2022,04,07,00,27,1.90
2022,04,07,00,28,0.80
2022,04,07,00,29,0.10
2022,04,07,00,30,1.10
2022,04,07,00,31,1.60
2022,04,07,00,32,1.90
2022,04,07,00,33,2.20
2022,04,07,00,34,2.30
2022,04,07,00,35,3.40
2022,04,07,00,36,2.50
2022,04,07,00,37,3.10
2022,04,07,00,38,3.60
2022,04,07,00,39,3.10
2022,04,07,00,40,3.30
2022,04,07,00,41,2.60
2022,04,07,00,42,2.40
2022,04,07,00,43,2.60
2022,04,07,00,44,2.90
2022,04,07,00,45,2.70
2022,04,07,00,46,1.70
2022,04,07,00,47,2.40
2022,04,07,00,48,1.70
2022,04,07,00,49,1.50
2022,04,07,00,50,1.60
2022,04,07,00,51,2.30
2022,04,07,00,52,2.10
2022,04,07,00,53,2.10
2022,04,07,00,54,2.20
2022,04,07,00,55,2.10
2022,04,07,00,56,2.40
2022,04,07,00,57,2.60
2022,04,07,00,58,2.90
2022,04,07,00,59,2.20
2022,04,07,01,00,1.50
2022,04,07,01,01,1.60
2022,04,07,01,02,1.40
2022,04,07,01,03,1.50
2022,04,07,01,04,1.10
2022,04,07,01,05,1.50
2022,04,07,01,06,1.60
2022,04,07,01,07,1.70
2022,04,07,01,08,1.80
2022,04,07,01,09,1.70
2022,04,07,01,10,1.80
2022,04,07,01,11,1.60
2022,04,07,01,12,1.90
2022,04,07,01,13,1.60
2022,04,07,01,14,1.50
2022,04,07,01,15,1.70
2022,04,07,01,16,1.80
2022,04,07,01,17,1.30
2022,04,07,01,18,1.30
2022,04,07,01,19,1.70
2022,04,07,01,20,1.40
2022,04,07,01,21,1.90
2022,04,07,01,22,1.60
2022,04,07,01,23,2.00
2022,04,07,01,24,1.90
2022,04,07,01,25,1.20
2022,04,07,01,26,0.50
2022,04,07,01,27,1.10
2022,04,07,01,28,1.50
2022,04,07,01,29,1.90
2022,04,07,01,30,1.90
2022,04,07,01,31,2.10
2022,04,07,01,32,2.30
2022,04,07,01,33,2.70
2022,04,07,01,34,1.90
2022,04,07,01,35,1.90
2022,04,07,01,36,1.00
2022,04,07,01,37,0.30
2022,04,07,01,38,0.00
2022,04,07,01,39,0.00
2022,04,07,01,40,0.10
2022,04,07,01,41,0.80
2022,04,07,01,42,0.70
2022,04,07,01,43,1.70
2022,04,07,01,44,1.70
2022,04,07,01,45,0.60
2022,04,07,01,46,0.00
2022,04,07,01,47,0.00
2022,04,07,01,48,0.00
2022,04,07,01,49,0.00
2022,04,07,01,50,0.00
2022,04,07,01,51,0.00
2022,04,07,01,52,0.00
2022,04,07,01,53,0.00
2022,04,07,01,54,0.00
2022,04,07,01,55,0.00
2022,04,07,01,56,0.00
2022,04,07,01,57,0.00
2022,04,07,01,58,0.00
2022,04,07,01,59,0.00
2022,04,07,02,00,0.00
2022,04,07,02,01,0.00
2022,04,07,02,02,0.00
2022,04,07,02,03,1.90
2022,04,07,02,04,2.30
2022,04,07,02,05,3.10
2022,04,07,02,06,3.00
2022,04,07,02,07,2.90
2022,04,07,02,08,2.10
2022,04,07,02,09,1.50
2022,04,07,02,10,1.50
2022,04,07,02,11,1.90
2022,04,07,02,12,1.80
2022,04,07,02,13,2.40
2022,04,07,02,14,1.90
2022,04,07,02,15,1.50
2022,04,07,02,16,1.70
2022,04,07,02,17,1.60
2022,04,07,02,18,1.50
2022,04,07,02,19,1.40
2022,04,07,02,20,1.10
2022,04,07,02,21,0.40
2022,04,07,02,22,0.20
2022,04,07,02,23,0.30
2022,04,07,02,24,0.60
2022,04,07,02,25,0.10
2022,04,07,02,26,0.00
2022,04,07,02,27,0.20
2022,04,07,02,28,0.10
2022,04,07,02,29,0.50
2022,04,07,02,30,1.00
2022,04,07,02,31,1.70
2022,04,07,02,32,1.20
2022,04,07,02,33,1.00
2022,04,07,02,34,0.90
2022,04,07,02,35,0.80
2022,04,07,02,36,1.10
2022,04,07,02,37,1.10
2022,04,07,02,38,0.40
2022,04,07,02,39,0.00
2022,04,07,02,40,0.00
2022,04,07,02,41,0.00
2022,04,07,02,42,0.00
2022,04,07,02,43,0.00
2022,04,07,02,44,0.00
2022,04,07,02,45,0.00
2022,04,07,02,46,0.00
2022,04,07,02,47,0.00
2022,04,07,02,48,0.00
2022,04,07,02,49,0.00
2022,04,07,02,50,0.00
2022,04,07,02,51,0.00
2022,04,07,02,52,0.00
2022,04,07,02,53,0.00
2022,04,07,02,54,0.00
2022,04,07,02,55,0.00
2022,04,07,02,56,0.00
2022,04,07,02,57,0.00
2022,04,07,02,58,0.00
2022,04,07,02,59,0.00
2022,04,07,03,00,0.00
2022,04,07,03,01,0.00
2022,04,07,03,02,0.00
2022,04,07,03,03,0.00
2022,04,07,03,04,1.50
2022,04,07,03,05,1.60
2022,04,07,03,06,0.90
2022,04,07,03,07,0.60
2022,04,07,03,08,1.80
2022,04,07,03,09,1.80
2022,04,07,03,10,1.90
2022,04,07,03,11,1.40
2022,04,07,03,12,1.70
2022,04,07,03,13,1.00
2022,04,07,03,14,1.80
2022,04,07,03,15,1.90
2022,04,07,03,16,1.30
2022,04,07,03,17,1.50
2022,04,07,03,18,2.40
2022,04,07,03,19,2.30
2022,04,07,03,20,1.50
2022,04,07,03,21,1.10
2022,04,07,03,22,0.80
2022,04,07,03,23,0.70
2022,04,07,03,24,1.10
2022,04,07,03,25,0.70
2022,04,07,03,26,0.70
2022,04,07,03,27,0.90
2022,04,07,03,28,0.90
2022,04,07,03,29,0.50
2022,04,07,03,30,0.40
2022,04,07,03,31,1.40
2022,04,07,03,32,1.80
2022,04,07,03,33,1.50
2022,04,07,03,34,0.60
2022,04,07,03,35,0.00
2022,04,07,03,36,0.00
2022,04,07,03,37,0.50
2022,04,07,03,38,1.50
2022,04,07,03,39,1.70
2022,04,07,03,40,2.00
2022,04,07,03,41,1.90
2022,04,07,03,42,1.60
2022,04,07,03,43,1.30
2022,04,07,03,44,0.50
2022,04,07,03,45,0.20
2022,04,07,03,46,0.00
2022,04,07,03,47,0.00
2022,04,07,03,48,0.00
2022,04,07,03,49,0.00
2022,04,07,03,50,0.00
2022,04,07,03,51,0.00
2022,04,07,03,52,0.00
2022,04,07,03,53,0.00
2022,04,07,03,54,0.00
2022,04,07,03,55,0.00
2022,04,07,03,56,0.00
2022,04,07,03,57,0.00
2022,04,07,03,58,0.00
2022,04,07,03,59,0.90
2022,04,07,04,00,2.10
2022,04,07,04,01,2.00
2022,04,07,04,02,1.50
2022,04,07,04,03,1.50
2022,04,07,04,04,1.80
2022,04,07,04,05,2.20
2022,04,07,04,06,2.00
2022,04,07,04,07,2.30
2022,04,07,04,08,3.00
2022,04,07,04,09,3.00
2022,04,07,04,10,1.30
2022,04,07,04,11,0.90
2022,04,07,04,12,0.90
2022,04,07,04,13,0.30
2022,04,07,04,14,0.70
2022,04,07,04,15,0.00
2022,04,07,04,16,1.20
2022,04,07,04,17,2.30
2022,04,07,04,18,2.10
2022,04,07,04,19,2.60
2022,04,07,04,20,2.30
2022,04,07,04,21,2.30
2022,04,07,04,22,1.60
2022,04,07,04,23,1.90
2022,04,07,04,24,2.20
2022,04,07,04,25,2.20
2022,04,07,04,26,2.10
2022,04,07,04,27,1.50
2022,04,07,04,28,1.40
2022,04,07,04,29,1.70
2022,04,07,04,30,1.90
2022,04,07,04,31,2.00
2022,04,07,04,32,1.90
2022,04,07,04,33,2.20
2022,04,07,04,34,2.10
2022,04,07,04,35,2.30
2022,04,07,04,36,2.30
2022,04,07,04,37,2.00
2022,04,07,04,38,1.80
2022,04,07,04,39,1.60
2022,04,07,04,40,1.40
2022,04,07,04,41,1.50
2022,04,07,04,42,1.20
2022,04,07,04,43,1.60
2022,04,07,04,44,2.30
2022,04,07,04,45,2.40
2022,04,07,04,46,2.20
2022,04,07,04,47,1.10
2022,04,07,04,48,1.20
2022,04,07,04,49,1.30
2022,04,07,04,50,1.50
2022,04,07,04,51,1.80
2022,04,07,04,52,1.90
2022,04,07,04,53,2.50
2022,04,07,04,54,3.80
2022,04,07,04,55,3.50
2022,04,07,04,56,3.20
2022,04,07,04,57,2.30
2022,04,07,04,58,2.60
2022,04,07,04,59,1.60
2022,04,07,05,00,1.00
2022,04,07,05,01,2.10
2022,04,07,05,02,1.70
2022,04,07,05,03,1.70
2022,04,07,05,04,1.10
2022,04,07,05,05,0.00
2022,04,07,05,06,0.00
2022,04,07,05,07,0.00
2022,04,07,05,08,0.00
2022,04,07,05,09,0.10
2022,04,07,05,10,1.80
2022,04,07,05,11,1.90
2022,04,07,05,12,2.20
2022,04,07,05,13,2.20
2022,04,07,05,14,1.70
2022,04,07,05,15,1.60
2022,04,07,05,16,1.90
2022,04,07,05,17,1.10
2022,04,07,05,18,1.50
2022,04,07,05,19,2.10
2022,04,07,05,20,2.10
2022,04,07,05,21,2.10
2022,04,07,05,22,1.10
2022,04,07,05,23,1.40
2022,04,07,05,24,1.20
2022,04,07,05,25,1.30
2022,04,07,05,26,1.20
2022,04,07,05,27,1.50
2022,04,07,05,28,1.60
2022,04,07,05,29,1.80
2022,04,07,05,30,2.50
2022,04,07,05,31,2.10
2022,04,07,05,32,1.60
2022,04,07,05,33,1.40
2022,04,07,05,34,1.40
2022,04,07,05,35,1.20
2022,04,07,05,36,0.60
2022,04,07,05,37,0.00
2022,04,07,05,38,0.00
2022,04,07,05,39,0.00
2022,04,07,05,40,0.00
2022,04,07,05,41,0.60
2022,04,07,05,42,0.00
2022,04,07,05,43,0.00
2022,04,07,05,44,0.00
2022,04,07,05,45,1.50
2022,04,07,05,46,1.50
2022,04,07,05,47,1.70
2022,04,07,05,48,1.60
2022,04,07,05,49,1.50
2022,04,07,05,50,1.30
2022,04,07,05,51,1.50
2022,04,07,05,52,1.90
2022,04,07,05,53,1.90
2022,04,07,05,54,1.60
2022,04,07,05,55,1.50
2022,04,07,05,56,2.30
2022,04,07,05,57,1.90
2022,04,07,05,58,1.80
2022,04,07,05,59,2.30
2022,04,07,06,00,2.10
2022,04,07,06,01,1.10
2022,04,07,06,02,0.00
2022,04,07,06,03,0.00
2022,04,07,06,04,0.00
2022,04,07,06,05,0.00
2022,04,07,06,06,0.00
2022,04,07,06,07,0.00
2022,04,07,06,08,0.00
2022,04,07,06,09,0.00
2022,04,07,06,10,0.00
2022,04,07,06,11,0.00
2022,04,07,06,12,0.00
2022,04,07,06,13,0.00
2022,04,07,06,14,0.00
2022,04,07,06,15,0.00
2022,04,07,06,16,0.00
2022,04,07,06,17,0.00
2022,04,07,06,18,0.00
2022,04,07,06,19,0.00
2022,04,07,06,20,0.00
2022,04,07,06,21,0.00
2022,04,07,06,22,0.00
2022,04,07,06,23,0.00
2022,04,07,06,24,0.00
2022,04,07,06,25,0.00
2022,04,07,06,26,0.00
2022,04,07,06,27,0.00
2022,04,07,06,28,0.00
2022,04,07,06,29,0.00
2022,04,07,06,30,0.00
2022,04,07,06,31,0.00
2022,04,07,06,32,0.00
2022,04,07,06,33,0.00
2022,04,07,06,34,0.00
2022,04,07,06,35,0.90
2022,04,07,06,36,1.70
2022,04,07,06,37,1.30
2022,04,07,06,38,0.80
2022,04,07,06,39,0.50
2022,04,07,06,40,1.00
2022,04,07,06,41,0.50
2022,04,07,06,42,0.10
2022,04,07,06,43,0.00
2022,04,07,06,44,0.10
2022,04,07,06,45,0.00
2022,04,07,06,46,0.00
2022,04,07,06,47,0.00
2022,04,07,06,48,0.00
2022,04,07,06,49,2.10
2022,04,07,06,50,1.90
2022,04,07,06,51,1.80
2022,04,07,06,52,1.10
2022,04,07,06,53,1.40
2022,04,07,06,54,1.60
2022,04,07,06,55,1.20
2022,04,07,06,56,1.00
2022,04,07,06,57,0.00
2022,04,07,06,58,0.30
2022,04,07,06,59,0.30
2022,04,07,07,00,0.50
2022,04,07,07,01,1.50
2022,04,07,07,02,1.00
2022,04,07,07,03,0.00
2022,04,07,07,04,0.00
2022,04,07,07,05,0.00
2022,04,07,07,06,0.00
2022,04,07,07,07,0.00
2022,04,07,07,08,0.00
2022,04,07,07,09,0.00
2022,04,07,07,10,0.00
2022,04,07,07,11,0.00
2022,04,07,07,12,0.00
2022,04,07,07,13,0.00
2022,04,07,07,14,0.00
2022,04,07,07,15,0.00
2022,04,07,07,16,0.00
2022,04,07,07,17,0.00
2022,04,07,07,18,0.00
2022,04,07,07,19,0.00
2022,04,07,07,20,0.00
2022,04,07,07,21,0.00
2022,04,07,07,22,0.00
2022,04,07,07,23,0.00
2022,04,07,07,24,0.00
2022,04,07,07,25,0.00
2022,04,07,07,26,0.00
2022,04,07,07,27,0.00
2022,04,07,07,28,0.00
2022,04,07,07,29,0.00
2022,04,07,07,30,0.00
2022,04,07,07,31,0.00
2022,04,07,07,32,0.00
2022,04,07,07,33,0.00
2022,04,07,07,34,0.00
2022,04,07,07,35,0.00
2022,04,07,07,36,0.00
2022,04,07,07,37,0.00
2022,04,07,07,38,0.00
2022,04,07,07,39,0.00
2022,04,07,07,40,0.00
2022,04,07,07,41,0.00
2022,04,07,07,42,0.00
2022,04,07,07,43,0.00
2022,04,07,07,44,0.00
2022,04,07,07,45,0.00
2022,04,07,07,46,0.00
2022,04,07,07,47,0.00
2022,04,07,07,48,0.00
2022,04,07,07,49,0.00
2022,04,07,07,50,0.00
2022,04,07,07,51,0.00
2022,04,07,07,52,0.00
2022,04,07,07,53,0.00
2022,04,07,07,54,0.00
2022,04,07,07,55,0.00
2022,04,07,07,56,0.00
2022,04,07,07,57,0.00
2022,04,07,07,58,0.00
2022,04,07,07,59,0.00
2022,04,07,08,00,0.00
2022,04,07,08,01,0.00
2022,04,07,08,02,0.00
2022,04,07,08,03,0.00
2022,04,07,08,04,0.00
2022,04,07,08,05,0.00
2022,04,07,08,06,0.00
2022,04,07,08,07,0.00
2022,04,07,08,08,0.00
2022,04,07,08,09,0.00
2022,04,07,08,10,0.00
2022,04,07,08,11,0.00
2022,04,07,08,12,0.00
2022,04,07,08,13,0.00
2022,04,07,08,14,0.00
2022,04,07,08,15,0.00
2022,04,07,08,16,0.00
2022,04,07,08,17,0.00
2022,04,07,08,18,0.00
2022,04,07,08,19,0.00
2022,04,07,08,20,0.00
2022,04,07,08,21,0.00
2022,04,07,08,22,0.00
2022,04,07,08,23,0.00
2022,04,07,08,24,0.00
2022,04,07,08,25,0.00
2022,04,07,08,26,0.00
2022,04,07,08,27,0.00
2022,04,07,08,28,0.00
2022,04,07,08,29,0.00
2022,04,07,08,30,0.00
2022,04,07,08,31,0.00
2022,04,07,08,32,0.00
2022,04,07,08,33,1.40
2022,04,07,08,34,3.50
2022,04,07,08,35,2.00
2022,04,07,08,36,2.60
2022,04,07,08,37,0.90
2022,04,07,08,38,0.40
2022,04,07,08,39,1.80
2022,04,07,08,40,2.60
2022,04,07,08,41,0.30
2022,04,07,08,42,2.80
2022,04,07,08,43,2.30
2022,04,07,08,44,2.30
2022,04,07,08,45,2.20
2022,04,07,08,46,1.40
2022,04,07,08,47,0.90
2022,04,07,08,48,1.90
2022,04,07,08,49,4.20
2022,04,07,08,50,3.50
2022,04,07,08,51,4.00
2022,04,07,08,52,3.00
2022,04,07,08,53,2.30
2022,04,07,08,54,2.30
2022,04,07,08,55,4.30
2022,04,07,08,56,3.00
2022,04,07,08,57,0.90
2022,04,07,08,58,3.90
2022,04,07,08,59,3.80
2022,04,07,09,00,2.70
2022,04,07,09,01,3.10
2022,04,07,09,02,3.60
2022,04,07,09,03,4.60
2022,04,07,09,04,3.00
2022,04,07,09,05,2.40
2022,04,07,09,06,2.20
2022,04,07,09,07,3.80
2022,04,07,09,08,2.50
2022,04,07,09,09,3.80
2022,04,07,09,10,1.90
2022,04,07,09,11,3.40
2022,04,07,09,12,3.60
2022,04,07,09,13,1.10
2022,04,07,09,14,1.50
2022,04,07,09,15,2.30
2022,04,07,09,16,4.70
2022,04,07,09,17,1.40
2022,04,07,09,18,2.70
2022,04,07,09,19,3.20
2022,04,07,09,20,3.10
2022,04,07,09,21,2.10
2022,04,07,09,22,4.30
2022,04,07,09,23,4.30
2022,04,07,09,24,4.10
2022,04,07,09,25,3.90
2022,04,07,09,26,4.20
2022,04,07,09,27,4.20
2022,04,07,09,28,2.80
2022,04,07,09,29,3.10
2022,04,07,09,30,3.00
2022,04,07,09,31,1.00
2022,04,07,09,32,1.80
2022,04,07,09,33,3.00
2022,04,07,09,34,4.20
2022,04,07,09,35,5.70
2022,04,07,09,36,1.50
2022,04,07,09,37,2.10
2022,04,07,09,38,5.10
2022,04,07,09,39,4.10
2022,04,07,09,40,2.70
2022,04,07,09,41,3.10
2022,04,07,09,42,2.60
2022,04,07,09,43,4.00
2022,04,07,09,44,4.60
2022,04,07,09,45,3.20
2022,04,07,09,46,2.60
2022,04,07,09,47,3.10
2022,04,07,09,48,2.90
2022,04,07,09,49,2.50
2022,04,07,09,50,3.40
2022,04,07,09,51,3.10
2022,04,07,09,52,3.50
2022,04,07,09,53,4.30
2022,04,07,09,54,1.90
2022,04,07,09,55,1.40
2022,04,07,09,56,4.90
2022,04,07,09,57,3.90
2022,04,07,09,58,4.10
2022,04,07,09,59,3.50
2022,04,07,10,00,3.90
2022,04,07,10,01,6.00
2022,04,07,10,02,4.00
2022,04,07,10,03,1.40
2022,04,07,10,04,1.40
2022,04,07,10,05,1.60
2022,04,07,10,06,1.10
2022,04,07,10,07,6.30
2022,04,07,10,08,6.40
2022,04,07,10,09,4.90
2022,04,07,10,10,4.60
2022,04,07,10,11,2.80
2022,04,07,10,12,5.80
2022,04,07,10,13,3.60
2022,04,07,10,14,3.10
2022,04,07,10,15,3.90
2022,04,07,10,16,2.50
2022,04,07,10,17,6.40
2022,04,07,10,18,3.40
2022,04,07,10,19,3.50
2022,04,07,10,20,2.60
2022,04,07,10,21,4.00
2022,04,07,10,22,3.00
2022,04,07,10,23,1.90
2022,04,07,10,24,4.20
2022,04,07,10,25,2.40
2022,04,07,10,26,3.80
2022,04,07,10,27,8.30
2022,04,07,10,28,5.00
2022,04,07,10,29,4.60
2022,04,07,10,30,4.10
2022,04,07,10,31,3.30
2022,04,07,10,32,4.60
2022,04,07,10,33,4.90
2022,04,07,10,34,2.20
2022,04,07,10,35,3.20
2022,04,07,10,36,4.20
2022,04,07,10,37,5.30
2022,04,07,10,38,4.00
2022,04,07,10,39,5.10
2022,04,07,10,40,3.60
2022,04,07,10,41,3.60
2022,04,07,10,42,4.10
2022,04,07,10,43,3.70
2022,04,07,10,44,4.00
2022,04,07,10,45,3.40
2022,04,07,10,46,3.30
2022,04,07,10,47,2.30
2022,04,07,10,48,3.90
2022,04,07,10,49,4.00
2022,04,07,10,50,5.10
2022,04,07,10,51,4.80
2022,04,07,10,52,3.50
2022,04,07,10,53,3.80
2022,04,07,10,54,1.80
2022,04,07,10,55,4.20
2022,04,07,10,56,4.70
2022,04,07,10,57,5.80
2022,04,07,10,58,3.30
2022,04,07,10,59,3.60
2022,04,07,11,00,3.60
2022,04,07,11,01,6.00
2022,04,07,11,02,3.00
2022,04,07,11,03,4.60
2022,04,07,11,04,2.80
2022,04,07,11,05,3.90
2022,04,07,11,06,3.10
2022,04,07,11,07,6.70
2022,04,07,11,08,5.90
2022,04,07,11,09,4.60
2022,04,07,11,10,3.60
2022,04,07,11,11,3.20
2022,04,07,11,12,3.00
2022,04,07,11,13,4.10
2022,04,07,11,14,3.90
2022,04,07,11,15,2.20
2022,04,07,11,16,4.60
2022,04,07,11,17,2.90
2022,04,07,11,18,5.40
2022,04,07,11,19,4.40
2022,04,07,11,20,3.40
2022,04,07,11,21,3.60
2022,04,07,11,22,4.90
2022,04,07,11,23,5.20
2022,04,07,11,24,3.40
2022,04,07,11,25,3.40
2022,04,07,11,26,8.30
2022,04,07,11,27,4.30
2022,04,07,11,28,6.30
2022,04,07,11,29,3.10
2022,04,07,11,30,4.70
2022,04,07,11,31,6.20
2022,04,07,11,32,5.40
2022,04,07,11,33,5.40
2022,04,07,11,34,3.60
2022,04,07,11,35,5.30
2022,04,07,11,36,3.30
2022,04,07,11,37,4.00
2022,04,07,11,38,3.40
2022,04,07,11,39,6.10
2022,04,07,11,40,5.30
2022,04,07,11,41,2.90
2022,04,07,11,42,2.60
2022,04,07,11,43,4.70
2022,04,07,11,44,3.80
2022,04,07,11,45,4.30
2022,04,07,11,46,3.30
2022,04,07,11,47,5.60
2022,04,07,11,48,3.50
2022,04,07,11,49,2.80
2022,04,07,11,50,6.80
2022,04,07,11,51,6.20
2022,04,07,11,52,2.30
2022,04,07,11,53,4.10
2022,04,07,11,54,5.90
2022,04,07,11,55,5.40
2022,04,07,11,56,2.70
2022,04,07,11,57,1.90
2022,04,07,11,58,4.10
2022,04,07,11,59,6.60
2022,04,07,12,00,8.00
2022,04,07,12,01,4.50
2022,04,07,12,02,4.80
2022,04,07,12,03,5.20
2022,04,07,12,04,3.80
2022,04,07,12,05,2.80
2022,04,07,12,06,4.30
2022,04,07,12,07,6.00
2022,04,07,12,08,6.70
2022,04,07,12,09,4.20
2022,04,07,12,10,4.40
2022,04,07,12,11,6.10
2022,04,07,12,12,6.10
2022,04,07,12,13,6.80
2022,04,07,12,14,4.70
2022,04,07,12,15,5.70
2022,04,07,12,16,5.40
2022,04,07,12,17,5.70
2022,04,07,12,18,8.50
2022,04,07,12,19,4.70
2022,04,07,12,20,4.70
2022,04,07,12,21,5.60
2022,04,07,12,22,7.70
2022,04,07,12,23,6.90
2022,04,07,12,24,8.50
2022,04,07,12,25,7.50
2022,04,07,12,26,6.30
2022,04,07,12,27,9.80
2022,04,07,12,28,9.20
2022,04,07,12,29,7.50
2022,04,07,12,30,7.10
2022,04,07,12,31,6.90
2022,04,07,12,32,8.30
2022,04,07,12,33,4.90
2022,04,07,12,34,7.90
2022,04,07,12,35,7.90
2022,04,07,12,36,7.10
2022,04,07,12,37,9.20
2022,04,07,12,38,6.40
2022,04,07,12,39,7.40
2022,04,07,12,40,6.40
2022,04,07,12,41,5.60
2022,04,07,12,42,6.20
2022,04,07,12,43,6.00
2022,04,07,12,44,6.70
2022,04,07,12,45,6.40
2022,04,07,12,46,5.40
2022,04,07,12,47,6.00
2022,04,07,12,48,7.80
2022,04,07,12,49,11.10
2022,04,07,12,50,8.60
2022,04,07,12,51,8.60
2022,04,07,12,52,6.50
2022,04,07,12,53,9.60
2022,04,07,12,54,10.70
2022,04,07,12,55,6.40
2022,04,07,12,56,7.90
2022,04,07,12,57,8.70
2022,04,07,12,58,7.40
2022,04,07,12,59,2.80
2022,04,07,13,00,3.50
2022,04,07,13,01,3.90
2022,04,07,13,02,6.10
2022,04,07,13,03,4.80
2022,04,07,13,04,7.70
2022,04,07,13,05,4.00
2022,04,07,13,06,4.80
2022,04,07,13,07,4.70
2022,04,07,13,08,5.40
2022,04,07,13,09,4.80
2022,04,07,13,10,6.70
2022,04,07,13,11,5.00
2022,04,07,13,12,9.00
2022,04,07,13,13,5.90
2022,04,07,13,14,5.60
2022,04,07,13,15,4.00
2022,04,07,13,16,5.30
2022,04,07,13,17,4.50
2022,04,07,13,18,2.40
2022,04,07,13,19,4.40
2022,04,07,13,20,5.40
2022,04,07,13,21,6.80
2022,04,07,13,22,3.20
2022,04,07,13,23,5.50
2022,04,07,13,24,6.40
2022,04,07,13,25,3.90
2022,04,07,13,26,4.80
2022,04,07,13,27,4.80
2022,04,07,13,28,2.90
2022,04,07,13,29,6.70
2022,04,07,13,30,5.40
2022,04,07,13,31,4.50
2022,04,07,13,32,3.90
2022,04,07,13,33,4.40
2022,04,07,13,34,3.50
2022,04,07,13,35,4.70
2022,04,07,13,36,5.00
2022,04,07,13,37,4.10
2022,04,07,13,38,4.50
2022,04,07,13,39,9.20
2022,04,07,13,40,5.40
2022,04,07,13,41,5.30
2022,04,07,13,42,2.60
2022,04,07,13,43,6.00
2022,04,07,13,44,2.30
2022,04,07,13,45,2.80
2022,04,07,13,46,6.20
2022,04,07,13,47,3.80
2022,04,07,13,48,6.00
2022,04,07,13,49,5.10
2022,04,07,13,50,6.40
2022,04,07,13,51,7.60
2022,04,07,13,52,5.70
2022,04,07,13,53,4.90
2022,04,07,13,54,5.10
2022,04,07,13,55,4.90
2022,04,07,13,56,5.40
2022,04,07,13,57,5.50
2022,04,07,13,58,3.10
2022,04,07,13,59,3.30
2022,04,07,14,00,4.80
2022,04,07,14,01,4.60
2022,04,07,14,02,6.10
2022,04,07,14,03,3.90
2022,04,07,14,04,3.50
2022,04,07,14,05,4.30
2022,04,07,14,06,5.20
2022,04,07,14,07,6.10
2022,04,07,14,08,5.60
2022,04,07,14,09,4.80
2022,04,07,14,10,6.50
2022,04,07,14,11,5.30
2022,04,07,14,12,4.40
2022,04,07,14,13,5.20
2022,04,07,14,14,3.20
2022,04,07,14,15,3.00
2022,04,07,14,16,4.60
2022,04,07,14,17,4.90
2022,04,07,14,18,5.90
2022,04,07,14,19,5.20
2022,04,07,14,20,6.40
2022,04,07,14,21,4.60
2022,04,07,14,22,5.80
2022,04,07,14,23,5.10
2022,04,07,14,24,5.40
2022,04,07,14,25,7.50
2022,04,07,14,26,4.00
2022,04,07,14,27,4.80
2022,04,07,14,28,3.70
2022,04,07,14,29,4.00
2022,04,07,14,30,3.00
2022,04,07,14,31,6.00
2022,04,07,14,32,6.10
2022,04,07,14,33,5.30
2022,04,07,14,34,3.60
2022,04,07,14,35,5.80
2022,04,07,14,36,6.10
2022,04,07,14,37,4.90
2022,04,07,14,38,5.10
2022,04,07,14,39,4.10
2022,04,07,14,40,4.70
2022,04,07,14,41,3.50
2022,04,07,14,42,7.30
2022,04,07,14,43,4.60
2022,04,07,14,44,6.30
2022,04,07,14,45,4.10
2022,04,07,14,46,6.20
2022,04,07,14,47,6.80
2022,04,07,14,48,6.00
2022,04,07,14,49,6.30
2022,04,07,14,50,5.60
2022,04,07,14,51,4.20
2022,04,07,14,52,4.00
2022,04,07,14,53,6.10
2022,04,07,14,54,6.40
2022,04,07,14,55,4.60
2022,04,07,14,56,2.30
2022,04,07,14,57,4.30
2022,04,07,14,58,6.00
2022,04,07,14,59,3.30
2022,04,07,15,00,2.40
2022,04,07,15,01,3.60
2022,04,07,15,02,5.20
2022,04,07,15,03,3.90
2022,04,07,15,04,4.30
2022,04,07,15,05,7.70
2022,04,07,15,06,4.80
2022,04,07,15,07,7.20
2022,04,07,15,08,5.20
2022,04,07,15,09,4.40
2022,04,07,15,10,6.00
2022,04,07,15,11,3.10
2022,04,07,15,12,2.90
2022,04,07,15,13,6.80
2022,04,07,15,14,8.50
2022,04,07,15,15,8.10
2022,04,07,15,16,9.10
2022,04,07,15,17,9.30
2022,04,07,15,18,9.20
2022,04,07,15,19,8.10
2022,04,07,15,20,7.20
2022,04,07,15,21,8.20
2022,04,07,15,22,6.60
2022,04,07,15,23,3.00
2022,04,07,15,24,5.40
2022,04,07,15,25,3.40
2022,04,07,15,26,5.10
2022,04,07,15,27,5.10
2022,04,07,15,28,2.90
2022,04,07,15,29,2.40
2022,04,07,15,30,4.30
2022,04,07,15,31,5.90
2022,04,07,15,32,5.20
2022,04,07,15,33,2.40
2022,04,07,15,34,3.70
2022,04,07,15,35,3.60
2022,04,07,15,36,4.40
2022,04,07,15,37,3.90
2022,04,07,15,38,4.10
2022,04,07,15,39,5.10
2022,04,07,15,40,3.50
2022,04,07,15,41,3.30
2022,04,07,15,42,1.90
2022,04,07,15,43,4.70
2022,04,07,15,44,4.30
2022,04,07,15,45,3.20
2022,04,07,15,46,1.40
2022,04,07,15,47,3.50
2022,04,07,15,48,3.50
2022,04,07,15,49,5.00
2022,04,07,15,50,6.40
2022,04,07,15,51,4.60
2022,04,07,15,52,4.70
2022,04,07,15,53,3.10
2022,04,07,15,54,5.00
2022,04,07,15,55,3.00
2022,04,07,15,56,3.30
2022,04,07,15,57,5.30
2022,04,07,15,58,4.40
2022,04,07,15,59,3.60
2022,04,07,16,00,2.10
2022,04,07,16,01,1.80
2022,04,07,16,02,2.40
2022,04,07,16,03,4.00
2022,04,07,16,04,4.10
2022,04,07,16,05,4.30
2022,04,07,16,06,2.70
2022,04,07,16,07,3.70
2022,04,07,16,08,4.40
2022,04,07,16,09,3.70
2022,04,07,16,10,5.80
2022,04,07,16,11,5.10
2022,04,07,16,12,7.30
2022,04,07,16,13,7.00
2022,04,07,16,14,3.90
2022,04,07,16,15,5.80
2022,04,07,16,16,7.40
2022,04,07,16,17,6.60
2022,04,07,16,18,5.70
2022,04,07,16,19,6.00
2022,04,07,16,20,1.80
2022,04,07,16,21,7.60
2022,04,07,16,22,5.00
2022,04,07,16,23,4.10
2022,04,07,16,24,3.30
2022,04,07,16,25,3.40
2022,04,07,16,26,4.30
2022,04,07,16,27,2.90
2022,04,07,16,28,5.40
2022,04,07,16,29,7.10
2022,04,07,16,30,4.50
2022,04,07,16,31,4.00
2022,04,07,16,32,3.40
2022,04,07,16,33,4.50
2022,04,07,16,34,3.70
2022,04,07,16,35,3.80
2022,04,07,16,36,3.70
2022,04,07,16,37,3.40
2022,04,07,16,38,4.30
2022,04,07,16,39,4.40
2022,04,07,16,40,5.60
2022,04,07,16,41,5.20
2022,04,07,16,42,7.50
2022,04,07,16,43,6.20
2022,04,07,16,44,6.10
2022,04,07,16,45,5.30
2022,04,07,16,46,6.00
2022,04,07,16,47,4.80
2022,04,07,16,48,7.60
2022,04,07,16,49,6.40
2022,04,07,16,50,5.90
2022,04,07,16,51,9.30
2022,04,07,16,52,7.20
2022,04,07,16,53,5.60
2022,04,07,16,54,3.40
2022,04,07,16,55,1.20
2022,04,07,16,56,5.20
2022,04,07,16,57,3.90
2022,04,07,16,58,3.80
2022,04,07,16,59,5.60
2022,04,07,17,00,2.50
2022,04,07,17,01,2.70
2022,04,07,17,02,1.60
2022,04,07,17,03,1.40
2022,04,07,17,04,1.70
2022,04,07,17,05,2.60
2022,04,07,17,06,1.10
2022,04,07,17,07,0.70
2022,04,07,17,08,2.90
2022,04,07,17,09,3.80
2022,04,07,17,10,4.30
2022,04,07,17,11,4.40
2022,04,07,17,12,4.70
2022,04,07,17,13,4.10
2022,04,07,17,14,4.40
2022,04,07,17,15,2.10
2022,04,07,17,16,3.00
2022,04,07,17,17,3.20
2022,04,07,17,18,3.50
2022,04,07,17,19,3.90
2022,04,07,17,20,2.70
2022,04,07,17,21,2.20
2022,04,07,17,22,0.60
2022,04,07,17,23,1.20
2022,04,07,17,24,0.60
2022,04,07,17,25,1.50
2022,04,07,17,26,0.10
2022,04,07,17,27,0.00
2022,04,07,17,28,0.00
2022,04,07,17,29,1.50
2022,04,07,17,30,1.90
2022,04,07,17,31,3.40
2022,04,07,17,32,3.90
2022,04,07,17,33,4.40
2022,04,07,17,34,4.70
2022,04,07,17,35,3.90
2022,04,07,17,36,3.50
2022,04,07,17,37,2.60
2022,04,07,17,38,3.30
2022,04,07,17,39,2.30
2022,04,07,17,40,2.10
2022,04,07,17,41,1.40
2022,04,07,17,42,0.50
2022,04,07,17,43,1.40
2022,04,07,17,44,0.60
2022,04,07,17,45,0.10
2022,04,07,17,46,0.00
2022,04,07,17,47,0.00
2022,04,07,17,48,1.20
2022,04,07,17,49,1.70
2022,04,07,17,50,2.30
2022,04,07,17,51,3.00
2022,04,07,17,52,3.50
2022,04,07,17,53,3.20
2022,04,07,17,54,3.50
2022,04,07,17,55,2.70
2022,04,07,17,56,4.40
2022,04,07,17,57,4.30
2022,04,07,17,58,4.80
2022,04,07,17,59,5.60
2022,04,07,18,00,5.90
2022,04,07,18,01,6.40
2022,04,07,18,02,6.80
2022,04,07,18,03,8.00
2022,04,07,18,04,5.40
2022,04,07,18,05,3.30
2022,04,07,18,06,2.00